Location: Exeidioux
(45.6312°N, 1.6819°E)
Time: 17:26:23
(UTC+00:00)

Cosmos 2278 Rocket - Pass Details

Date: 03 March 2021
Orbit: 841 x 845 km, 71.0° (Epoch: 11 April)

Event Time Altitude Azimuth Distance (km) Brightness Sun altitude
Rises 18:40:01 0° 342° (NNW) 3,415 5.6 -10.8°
Reaches altitude 10° 18:43:41 10° 6° (N) 2,476 4.6 -11.4°
Maximum altitude 18:46:48 15° 40° (NE) 2,149 4.0 -11.9°
Enters shadow 18:48:56 12° 64° (ENE) 2,303 3.9 -12.3°
